Location: Unspecified
(50.7693°N, 0.0000°E)
Time: 21:33:50
(UTC+00:00)

A-11 Canister half - Pass Details

Date: 29 June 2019
Orbit: 1527 x 1682 km, 47.3° (Epoch: 22 October)

Event Time Altitude Azimuth Distance (km) Brightness Sun altitude
Exits shadow 00:22:07 10° 147° (SSE) 3,761 10.6 -15.9°
Maximum altitude 00:25:36 13° 125° (SE) 3,541 10.6 -15.8°
Drops below altitude 10° 00:29:15 10° 101° (ESE) 3,748 11.0 -15.8°
Sets 00:34:39 0° 76° (ENE) 4,710 11.8 -15.7°
